Regional Weather Roundup
Issued by NWS

Home | Current Version | Previous Version | Text Only | Print | Product List | Glossary Off
Versions: 1 2 3 4 5 6 7 8 9 10 11 12 13 14 15 16 17 18 19 20 21 22 23 24 25 26 27 28 29 30 31 32 33 34 35 36 37 38 39 40 41 42 43 44 45 46 47 48 49 50

000
ASUS45 KBOU 222310
RWRCO

WEATHER ROUNDUP FOR COLORADO
NATIONAL WEATHER SERVICE PUEBLO CO
500 PM MDT SUN APR 22 2018

NOTE: "FAIR" INDICATES FEW OR NO CLOUDS BELOW 12000 FEET WITH NO
SIGNIFICANT WEATHER AND/OR OBSTRUCTIONS TO VISIBILITY.

COZ001>005-013-030-031-230000-
...NORTHWEST COLORADO...

CITY           SKY/WX    TMP DP  RH WIND       PRES   REMARKS
CRAIG          SUNNY     66  29  24 W7        30.09F
HAYDEN         SUNNY     63  29  27 VRB3      30.12F
MEEKER         MOSUNNY   67  28  23 SW6       30.09F
RABBIT EARS PA NOT AVBL
STEAMBOAT SPGS FAIR      62  29  28 S5        30.12S
WALDEN         FAIR      59  23  25 S8        30.18S
$$

COZ006>008-011-230000-
...WEST CENTRAL VALLEYS...

CITY           SKY/WX    TMP DP  RH WIND       PRES   REMARKS
GRAND JUNCTION MOSUNNY   74  28  18 VRB5      30.00F
MONTROSE       MOSUNNY   69  18  14 N6        30.06F
EAGLE          MOSUNNY   64  25  22 SW3       30.12F
RIFLE          SUNNY     69  26  20 CALM      30.05F
DELTA          NOT AVBL
NUCLA          FAIR      70  14  11 N9        30.07F
$$

COZ017>023-064>068-230000-
...SOUTHWEST COLORADO...

CITY           SKY/WX    TMP DP  RH WIND       PRES   REMARKS
DURANGO        MOSUNNY   69  15  12 SW13G18   30.07F
CORTEZ         PTSUNNY   70  19  14 CALM      30.05F
PAGOSA SPRINGS FAIR      65   8  10 SW8       30.13S
TELLURIDE      CLOUDY    56  26  31 CALM      30.21F
WOLF CREEK PAS PTSUNNY   43  19  39 W10G16    30.38S
$$

COZ009-010-012-014-032>034-037-058>063-230000-
...CENTRAL COLORADO...

CITY           SKY/WX    TMP DP  RH WIND       PRES   REMARKS
ASPEN          MOSUNNY   60  25  26 VRB5      30.14F
BUENA VISTA    CLOUDY    63  19  18 S8        30.13F
COPPER MTN     NOT AVBL
BERTHOUD PASS  FAIR      30  19  64 NW9G16    30.38S WCI  22
COTTONWOOD PAS CLOUDY    55  21  26 SE5       30.25S
GUNNISON       MOSUNNY   61  20  20 SW7       30.13F
KREMMLING      MOSUNNY   66  28  24 SE5       30.16F
LEADVILLE      MOSUNNY   51  23  33 N9        30.22F
MONARCH PASS   MOSUNNY   45  16  31 CALM      30.44F
SALIDA         FAIR      66  17  15 CALM      30.18F
SUNLIGHT       PTSUNNY   39  28  65 NW3       30.34S
WILKERSON PASS MOSUNNY   41  27  56 E6        30.35S
$$

COZ069>075-230000-
...SAN LUIS VALLEY/SANGRE DE CRISTO MOUNTAINS...

CITY           SKY/WX    TMP DP  RH WIND       PRES   REMARKS
ALAMOSA        MOSUNNY   63  17  17 N5        30.12F
DEL NORTE      MOCLDY    63  20  19 E6        30.14S
LA VETA PASS   MOSUNNY   46  25  42 N13G24    30.38S
SAGUACHE       NOT AVBL
$$

COZ035-036-038>040-230000-
...NORTHERN COLORADO FRONT RANGE...

CITY           SKY/WX    TMP DP  RH WIND       PRES   REMARKS
DENVER INTL AP MOSUNNY   63  31  30 E8        30.11F
DMNS CITY PARK NOT AVBL
AURORA         MOSUNNY   64  31  29 NE10      30.11F
FRONT RANGE AP MOSUNNY   64  30  27 VRB5      30.12F
ERIE MUNI ARPT FAIR      65  31  28 NE7       30.15F
BOULDER MUN AP FAIR      64  34  32 E5        30.10F
CENTENNIAL     MOSUNNY   62  33  33 E10       30.12F
BROOMFIELD     MOSUNNY   63  34  34 NE8       30.12F
LOVELAND       SUNNY     66  37  34 E8        30.10F
LONGMONT       FAIR      68  36  30 E6        30.11F
$$

COZ041-046-047-076>085-087-088-230000-
...PIKES PEAK/PALMER DIVIDE AND SOUTHERN FOOTHILLS...

CITY           SKY/WX    TMP DP  RH WIND       PRES   REMARKS
COLO. SPRINGS  MOSUNNY   65  26  23 N5        30.13S
A. F. ACADEMY  SUNNY     62  25  24 N10       30.13S
SCHRIEVER AFB  NOT AVBL
CHEYENNE MTN   NOT AVBL
ELLICOTT         N/A    N/A N/A N/A SE17      30.13R
FALCON         FAIR      62  21  20 NE12G17   30.16F
FORT CARSON    SUNNY     62  38  41 SE14      30.11R
LIMON          SUNNY     61  30  31 NW6       30.12S
MONUMENT HILL  SUNNY     55  27  33 NE9       30.17F
CANON CITY     FAIR      68  37  32 E16G26    30.07S
WALSENBURG     FAIR      66  32  28 E12G20    30.11S
TRINIDAD       SUNNY     65  26  23 NE12G18   30.11S
$$

COZ042>045-048>051-090-091-230000-
...NORTHEAST COLORADO...

CITY           SKY/WX    TMP DP  RH WIND       PRES   REMARKS
GREELEY ARPT   SUNNY     67  34  29 SE6       30.09F
AKRON          SUNNY     57  38  48 E7        30.12F
BURLINGTON     SUNNY     56  38  50 E9        30.14F
WRAY           FAIR      57  36  44 MISG      30.16S
YUMA           NOT AVBL
STERLING       NOT AVBL
HOLYOKE        FAIR      59  37  44 SE7       30.15F
FORT MORGAN    NOT AVBL
$$

COZ086-089-092>099-230000-
...SOUTHEAST COLORADO...

CITY           SKY/WX    TMP DP  RH WIND       PRES   REMARKS
PUEBLO         SUNNY     65  39  38 E16G25    30.08S
LA JUNTA       SUNNY     60  38  43 E13G20    30.11F
LAMAR          SUNNY     57  36  45 E5        30.12F
SPRINGFIELD      N/A     55  36  48 E10       30.13S
$$




USA.gov is the U.S. government's official web portal to all federal, state and local government web resources and services.